C/2017 B3 ( LINEAR )

Japanese version
Home page
Updated on September 17, 2019

---------------------------------------------------------------------

* Profile

Discovery Date January 26, 2017
Magnitude 19.2 mag
Discoverer LINEAR survey (Space Surveillance Telescope, Atom Peak, White Sands Missile Range, NM, USA)

* Pictures

* Orbital Elements

Epoch 2019 Feb. 6.0 TT = JDT 2458520.5
T 2019 Feb. 2.50372 TT                                  Williams
q   3.9211553            (2000.0)            P               Q
z  -0.0005387      Peri.  284.74964     +0.27591437     +0.96068844
 +/-0.0000008      Node     2.17729     -0.19811145     +0.08820153
e   1.0021123      Incl.   54.17882     -0.94054405     +0.26324552
From 407 observations 2016 Apr. 1-2019 Aug. 6, mean residual 0".6.

* Finding Charts

* Magnitudes Graph

        m1 = 5.5 + 5 log d + 10.0 log r(t - 50)

---------------------------------------------------------------------

The orbital elements are published on M.P.E.C. 2019-Q135.
The charts are made with StellaNavigator Ver.10 (AstroArts).
The magnitudes graphs are made with Comet for Windows.

---------------------------------------------------------------------

Copyright(C) Seiichi Yoshida (comet@aerith.net). All rights reserved.